Date String (YYYY-MM-DD hh:mm:ss) UTC,Instrument flags,absolute air pressure of the measurement (hPa),sample flow rate (lpm),inlet stack bypass flow (lpm),air temperature of the measurement (°C),ambient temperature measured by the external sensor (°C),aerosol sample conditioner tube jacket temperature (°C),OPC LED temperature (°C),internal box temperature (°C),relative humidity of the measurement (%),span deviation,mass concentration of particles derived from Lorenz-Mie calculation of OPC scattering (μg/m³),mass concentration of particles derived from Lorenz-Mie calculation of OPC scattering (μg/m³),mass concentration of particles derived from Lorenz-Mie calculation of OPC scattering (μg/m³)
DateTimeUTC,F1_M11,P_M11,Q1_M11,Q2_M11,T1_M11,T2_M11,T3_M11,T4_M11,T5_M11,U1_M11,ZSPAN_M11,X0_M11,X2_M11,X1_M11
2024-06-06 13:00:00,SystemResetWarning,0833.7,5.01,000.00,030.9,030.2,000.0,039.2,032.6,024.7,0000.0,0018.31,0003.80,0001.72
2024-06-06 13:01:00,SystemResetWarning,0833.7,5.00,000.00,030.9,030.3,000.0,039.2,032.6,024.7,0000.0,0018.40,0003.82,0001.74
2024-06-06 13:02:00,SystemResetWarning,0833.7,5.00,000.00,030.9,030.3,000.0,039.2,032.6,024.8,0000.0,0018.28,0003.87,0001.75
2024-06-06 13:03:00,SystemResetWarning,0833.7,4.99,000.00,030.9,030.3,000.0,039.2,032.6,025.0,0000.0,0018.45,0003.81,0001.74
2024-06-06 13:04:00,SystemResetWarning,0833.7,4.99,000.00,030.9,030.3,000.0,039.3,032.6,024.7,0000.0,0018.63,0003.84,0001.74
2024-06-06 13:05:00,SystemResetWarning,0833.7,4.99,000.00,030.9,030.3,000.0,039.3,032.6,024.8,0000.0,0018.75,0003.87,0001.77
2024-06-06 13:06:00,SystemResetWarning,0833.8,5.00,000.00,031.0,030.3,000.0,039.3,032.6,024.7,0000.0,0018.93,0003.84,0001.77
2024-06-06 13:07:00,SystemResetWarning,0833.8,5.00,000.00,031.0,030.3,000.0,039.3,032.7,024.7,0000.0,0021.74,0003.89,0001.79
2024-06-06 13:08:00,SystemResetWarning,0833.8,5.00,000.00,031.0,030.4,000.0,039.3,032.7,024.8,0000.0,0023.63,0003.89,0001.81
2024-06-06 13:09:00,SystemResetWarning,0833.7,5.00,000.00,031.0,030.4,000.0,039.3,032.7,024.9,0000.0,0023.42,0003.86,0001.82
2024-06-06 13:10:00,SystemResetWarning,0833.8,5.01,000.00,031.0,030.4,000.0,039.4,032.7,024.8,0000.0,0024.65,0003.89,0001.84
2024-06-06 13:11:00,SystemResetWarning,0833.8,5.00,000.00,031.0,030.4,000.0,039.4,032.7,024.9,0000.0,0024.49,0003.84,0001.85
2024-06-06 13:12:00,SystemResetWarning,0833.8,5.01,000.00,031.0,030.4,000.0,039.4,032.7,024.8,0000.0,0024.28,0003.83,0001.85
2024-06-06 13:13:00,SystemResetWarning,0833.8,5.00,000.00,031.1,030.4,000.0,039.4,032.8,024.8,0000.0,0025.80,0003.85,0001.87
2024-06-06 13:14:00,SystemResetWarning,0833.8,4.99,000.00,031.1,030.4,000.0,039.4,032.8,024.5,0000.0,0026.44,0003.88,0001.90
2024-06-06 13:15:00,SystemResetWarning,0833.8,5.00,000.00,031.1,030.4,000.0,039.4,032.8,024.8,0000.0,0025.87,0003.88,0001.91
2024-06-06 13:16:00,SystemResetWarning,0833.8,5.00,000.00,031.1,030.5,000.0,039.4,032.8,024.8,0000.0,0025.43,0003.90,0001.90
2024-06-06 13:17:00,SystemResetWarning,0833.8,4.99,000.00,031.1,030.5,000.0,039.5,032.8,025.0,0000.0,0024.06,0003.91,0001.92
2024-06-06 13:18:00,SystemResetWarning,0833.8,4.99,000.00,031.1,030.5,000.0,039.5,032.8,024.8,0000.0,0022.44,0003.89,0001.91
2024-06-06 13:19:00,SystemResetWarning,0833.8,5.00,000.00,031.1,030.5,000.0,039.5,032.8,024.8,0000.0,0020.11,0003.95,0001.89
2024-06-06 13:20:00,SystemResetWarning,0833.7,5.00,000.00,031.1,030.5,000.0,039.5,032.8,024.8,0000.0,0019.45,0003.99,0001.88
2024-06-06 13:21:00,SystemResetWarning,0833.8,5.00,000.00,031.2,030.5,000.0,039.5,032.8,025.1,0000.0,0019.69,0004.01,0001.88
2024-06-06 13:22:00,SystemResetWarning,0833.7,4.99,000.00,031.0,029.1,000.0,039.6,032.0,025.2,0000.0,0019.43,0004.01,0001.88
2024-06-06 13:23:00,SystemResetWarning,0833.6,5.00,000.00,030.5,026.7,000.0,039.6,030.9,025.5,0000.0,0020.72,0004.09,0001.91
2024-06-06 13:24:00,SystemResetWarning,0833.7,5.01,000.00,030.1,026.4,000.0,039.5,030.7,026.2,0000.0,0019.96,0004.10,0001.92
2024-06-06 13:25:00,SystemResetWarning,0833.7,5.01,000.00,030.0,026.8,000.0,039.3,030.8,026.4,0000.0,0019.55,0004.09,0001.93
2024-06-06 13:26:00,SystemResetWarning,0833.7,4.99,000.00,030.0,027.3,000.0,039.1,031.1,026.5,0000.0,0020.99,0004.13,0001.95
2024-06-06 13:27:00,SystemResetWarning,0833.7,5.00,000.00,030.0,027.7,000.0,039.0,031.2,026.5,0000.0,0021.38,0004.14,0001.97
2024-06-06 13:28:00,SystemResetWarning,0833.7,5.00,000.00,030.0,028.1,000.0,038.9,031.4,026.6,0000.0,0023.16,0004.17,0001.99
2024-06-06 13:29:00,SystemResetWarning,0833.7,4.99,000.00,030.0,028.4,000.0,038.8,031.5,026.6,0000.0,0023.31,0004.14,0002.02
2024-06-06 13:30:00,SystemResetWarning,0833.7,4.99,000.00,030.0,028.6,000.0,038.8,031.6,026.9,0000.0,0023.48,0004.10,0002.04
2024-06-06 13:31:00,SystemResetWarning,0833.8,5.00,000.00,030.0,028.8,000.0,038.7,031.6,026.6,0000.0,0023.60,0004.08,0002.07
2024-06-06 13:32:00,SystemResetWarning,0833.8,5.00,000.00,030.1,029.0,000.0,038.7,031.7,026.6,0000.0,0022.80,0004.07,0002.08
2024-06-06 13:33:00,SystemResetWarning,0833.8,5.01,000.00,030.1,029.2,000.0,038.7,031.8,026.6,0000.0,0022.64,0004.05,0002.10
2024-06-06 13:34:00,SystemResetWarning,0833.8,5.00,000.00,030.1,029.3,000.0,038.7,031.8,026.6,0000.0,0022.40,0004.03,0002.10
2024-06-06 13:35:00,SystemResetWarning,0833.8,5.01,000.00,030.2,029.4,000.0,038.7,031.9,026.5,0000.0,0022.24,0003.97,0002.10
2024-06-06 13:36:00,SystemResetWarning,0833.8,5.00,000.00,030.2,029.5,000.0,038.7,032.0,026.6,0000.0,0021.86,0003.96,0002.12
2024-06-06 13:37:00,SystemResetWarning,0833.8,4.99,000.00,030.2,029.5,000.0,038.7,032.0,026.3,0000.0,0020.15,0003.94,0002.12
2024-06-06 13:38:00,SystemResetWarning,0833.8,4.99,000.00,030.3,029.6,000.0,038.7,032.0,026.4,0000.0,0019.12,0003.90,0002.14
2024-06-06 13:39:00,SystemResetWarning,0833.9,4.99,000.00,030.3,029.7,000.0,038.7,032.0,026.5,0000.0,0018.44,0003.90,0002.16
2024-06-06 13:40:00,SystemResetWarning,0833.8,5.00,000.00,030.4,029.7,000.0,038.7,032.1,026.7,0000.0,0017.73,0003.92,0002.15
2024-06-06 13:41:00,SystemResetWarning,0833.9,5.01,000.00,030.4,029.8,000.0,038.8,032.1,026.4,0000.0,0017.87,0003.91,0002.16
2024-06-06 13:42:00,SystemResetWarning,0833.9,5.00,000.00,030.4,029.8,000.0,038.8,032.2,026.3,0000.0,0017.60,0003.87,0002.17
2024-06-06 13:43:00,SystemResetWarning,0833.9,5.00,000.00,030.5,029.9,000.0,038.8,032.2,026.5,0000.0,0016.93,0003.84,0002.18
2024-06-06 13:44:00,SystemResetWarning,0834.0,5.00,000.00,030.5,029.9,000.0,038.8,032.2,026.4,0000.0,0016.34,0003.89,0002.20
2024-06-06 13:45:00,SystemResetWarning,0833.9,5.00,000.00,030.5,029.9,000.0,038.8,032.2,026.3,0000.0,0015.32,0003.87,0002.20
2024-06-06 13:46:00,SystemResetWarning,0834.0,5.01,000.00,030.5,030.0,000.0,038.8,032.3,026.3,0000.0,0014.01,0003.85,0002.21
2024-06-06 13:47:00,SystemResetWarning,0834.0,5.00,000.00,030.6,030.0,000.0,038.9,032.3,026.5,0000.0,0013.86,0003.82,0002.21
2024-06-06 13:48:00,SystemResetWarning,0833.9,5.00,000.00,030.6,030.0,000.0,038.9,032.3,026.5,0000.0,0014.34,0003.81,0002.21
2024-06-06 13:49:00,SystemResetWarning,0833.9,5.00,000.00,030.6,030.1,000.0,038.9,032.4,026.5,0000.0,0014.37,0003.79,0002.20
2024-06-06 13:50:00,SystemResetWarning,0833.9,5.00,000.00,030.7,030.1,000.0,038.9,032.4,026.7,0000.0,0014.10,0003.72,0002.18
2024-06-06 13:51:00,SystemResetWarning,0833.9,5.00,000.00,030.7,030.1,000.0,039.0,032.4,026.2,0000.0,0014.36,0003.73,0002.17
2024-06-06 13:52:00,SystemResetWarning,0833.9,5.00,000.00,030.7,030.2,000.0,039.0,032.4,025.9,0000.0,0014.30,0003.75,0002.18
2024-06-06 13:53:00,SystemResetWarning,0833.9,5.00,000.00,030.7,030.2,000.0,039.0,032.5,026.1,0000.0,0015.45,0003.76,0002.17
2024-06-06 13:54:00,SystemResetWarning,0833.9,5.00,000.00,030.8,030.2,000.0,039.0,032.5,025.9,0000.0,0015.20,0003.72,0002.15
2024-06-06 13:55:00,SystemResetWarning,0833.9,5.00,000.00,030.8,030.2,000.0,039.0,032.5,026.0,0000.0,0015.64,0003.67,0002.13
2024-06-06 13:56:00,SystemResetWarning,0833.9,5.00,000.00,030.8,030.3,000.0,039.1,032.5,026.0,0000.0,0016.08,0003.66,0002.13
2024-06-06 13:57:00,SystemResetWarning,0833.9,5.00,000.00,030.8,030.3,000.0,039.1,032.5,025.7,0000.0,0016.91,0003.69,0002.14
2024-06-06 13:58:00,SystemResetWarning,0833.9,5.01,000.00,030.9,030.3,000.0,039.1,032.5,025.9,0000.0,0016.94,0003.75,0002.14
2024-06-06 13:59:00,SystemResetWarning,0833.9,4.99,000.00,030.8,029.7,000.0,039.2,032.2,026.0,0000.0,0016.80,0003.76,0002.14
